SCP
0 0 0 0 0 0 0 0 0 0 0 0 0 0 0 0 0 0 0 0 0 0 0 0 0 0 0 0 0 0 0 0 0 0 0 0 0 0 0 0 0 0 0 0 0 0 0 0 0
0 0 0 0 0 0 0 0 0 0 0 0 0 0 0 0 0 0 0 0 0 0 0 0 0 0 0 0 0 0 0 0 0 0 0 0 0 0 0 0 0 0 0 0 0 0 0 0 0
0 0 0 0 0 -0 0 0 0 0 0 0 0 0 0 0 0 0 0 0 0 0 0 0 0 0 0 0 0 0 0 0 0 0 0 0 0 0 0 0 0 0 0 0 0 0 0 0 0
0 0 0 0 0 0 0 0 0 0 0 0 0 0 0 0 0 0 0 0 0 0 0 0 0 0 0 0 0 0 0 0 0 0 0 0 0 0 0 0 0 0 0 0 0 0 0 0 0
0 0 0 0 0 0 0 0 0 0 0 0 0 0 0 0 0 0 0 0 0 0 0 0 0 0 0 0 0 0 0 0 0 0 0 0 0 0 0 0 0 0 0 0 0 0 0 0 0
0 0 0 0 0 0 0 0 0 0 0 0 0 0 0 0 0 0 0 0 0 0 0 0 0 0 0 0 0 0 0 0 0 0 0 0 0 0 0 0 0 0 0 0 0 0 0 0 0
0 0 0 0 0 0 0 0 0 0 0 0 0 0 0 0 0 0 0 0 0 0 0 0 0 0 0 0 0 0 0 0 0 0 0 0 0 0 0 0 0 0 0 0 0 0 0 0 0
0 0 0 0 0 0 0 0 0 0 0 0 0 0 0 0 0 0 0 0 0 0 0 0 0 0 0 0 0 0 0 0 0 0 0 0 0 0 0 0 0 0 0 0 0 0 0 0 0
0 0 0 0 0 0 0 0 0 0 0 0 0 0 0 0 0 0 0 0 0 0 0 0 0 0 0 0 0 0 0 0 0 0 0 0 0 0 0 0 0 0 0 0 0 0 0 0 0
0 0 0 0 0 0 0 0 0 0 0 0 0 0 0 0 0 0 0 0 0 0 0 0 0 0 0 0 0 0 0 0 0 0 0 0 0 0 0 0 0 0 0 0 0 0 0 0 0
0 0 0 0 0 0 0 0 0 0 0 0 0 0 0 0 0 0 0 0 0 0 0 0 0 0 0 0 0 0 0 0 0 0 0 0 0 0 0 0 0 0 0 0 0 0 0 0 0
0 0 0 0 0 0 0 0 0 0 0 0 0 0 0 0 0 0 0 0 0 0 0 0 0 0 0 0 0 0 0 0 0 0 0 0 0 0 0 0 0 0 0 0 0 0 0 0 0
0 0 0 0 0 0 0 0 0 0 0 0 0 0 0 0 0 0 0 0 0 0 0 0 0 0 0 0 0 0 0 0 0 0 0 0 0 0 0 0 0 0 0 0 0 0 0 0 0
0 0 0 0 0 0 0 0 0 0 0 0 0 0 0 0 0 0 0 0 0 0 0 0 0 0 0 0 0 0 0 0 0 0 0 0 0 0 0 0 0 0 0 0 0 0 0 0 0
0 0 0 0 0 0 0 0 0 0 0 0 0 0 0 0 0 0 0 0 0 0 0 0 0 0 0 0 0 0 0 0 0 0 0 0 0 0 0 0 0 0 0 0 0 0 0 0 0
0 0 0 0 0 0 0 0 0 0 0 0 0 0 0 0 0 0 0 0 0 0 0 0 0 0 0 0 0 0 0 0 0 0 0 0 0 0 0 0 0 0 0 0 0 0 0 0 0
0 0 0 0 0 0 0 0 0 0 0 0 0 0 0 0 0 0 0 0 0 0 0 0 0 0 0 0 0 0 0 0 0 0 0 0 0 0 0 0 0 0 0 0 0 0 0 0 0
0 0 0 0 0 0 0 0 0 0 0 0 0 0 0 0 0 0 0 0 0 0 0 0 0 0 0 0 0 0 0 0 0 0 0 0 0 0 0 0 0 0 0 0 0 0 0 0 -0
0 0 0 0 0 0 0 0 0 0 0 0 0 0 0 0 0 0 0 0 0 0 0 0 0 0 0 0 0 0 0 0 0 0 0 0 0 0 0 0 0 0 0 0 0 0 0 0 0
0 0 0 0 0 0 0 0 0 0 0 0 0 0 0 0 0 0 0 0 0 0 0 0 0 0 0 0 0 0 0 0 0 0 0 0 0 0 0 0 0 0 0 0 0 0 0 0 0
0 0 0 0 0 0 0 0 0 0 0 0 0 0 0 0 0 0 0 0 0 0 0 0 0 0 0 0 0 0 0 0 0 0 0 0 0 0 0 0 0 0 0 0 0 0 0 0 0
0 0 0 0 0 0 0 0 0 0 0 0 0 0 0 0 0 0 0 0 0 0 0 0 0 0 0 0 0 0 0 0 0 0 0 0 0 0 0 0 0 0 0 0 0 0 0 0 0
0 0 0 0 0 0 0 0 0 0 0 0 0 0 0 0 0 0 0 0 0 0 0 0 0 0 0 0 0 0 0 0 0 0 0 0 0 0 0 0 0 0 0 0 0 0 0 0 0
0 0 0 0 0 0 0 0 0 0 0 0 0 0 0 0 0 0 0 0 0 0 0 0 0 0 0 0 0 0 0 0 0 0 0 0 0 0 0 0 0 0 0 0 0 0 0 0 0
0 0 0 0 0 0 0 0 0 0 0 0 0 0 0 0 -0 0 0 0 0 0 0 0 0 0 0 0 0 0 0 0 0 0 0 0 0 0 0 0 0 0 0 0 0 0 0 0 0
0 0 0 0 0 0 0 0 0 0 0 0 0 0 0 0 0 0 0 0 0 0 0 0 0 0 0 0 0 0 0 0 0 0 0 0 0 0 0 0 0 0 0 0 0 0 0 0 0
0 0 0 0 0 0 0 0 0 0 0 0 0 0 0 0 0 0 0 0 0 0 0 0 0 0 0 0 0 0 0 0 0 0 0 0 0 0 0 0 0 0 0 0 0 0 0 0 0
0 0 0 0 0 0 0 0 0 0 0 0 0 0 0 0 0 0 0 0 0 0 0 0 0 0 0 0 0 0 0 0 0 0 0 0 0 0 0 0 0 0 0 0 0 0 0 0 0
0 0 0 0 0 0 0 0 0 0 0 0 0 0 0 0 0 0 0 0 0 0 0 0 0 0 0 0 0 0 0 0 0 0 0 0 0 0 0 0 0 0 0 0 0 0 0 0 0
0 0 0 0 0 0 0 0 0 0 0 0 0 0 0 0 0 0 0 0 0 0 0 0 0 0 0 0 0 0 0 0 0 0 0 0 0 0 0 0 0 0 0 0 0 0 0 0 0
Wind_Speed_500mb
19 14 6 7 11 10 19 9 11 9 5 4 4 8 15 20 14 4 16 32 41 44 31 32 28 23 17 11 12 16 17 16 14 10 11 10 8 7 5 4 5 7 9 12 15 17 14 13 14
17 11 8 12 14 20 17 19 14 12 8 6 2 3 4 9 14 15 15 47 43 36 29 30 26 20 14 12 15 18 18 18 15 14 10 8 6 5 5 6 9 12 15 16 18 21 19 18 18
13 19 13 9 19 26 18 8 16 10 7 5 4 2 7 8 8 18 16 47 45 36 29 25 24 19 15 13 16 19 17 17 14 11 7 6 5 5 7 10 12 15 18 20 21 21 21 21 22
9 10 11 17 26 22 22 7 4 5 6 5 4 8 10 8 13 8 26 39 43 39 30 30 27 21 18 17 20 18 13 10 9 7 5 6 6 8 11 14 16 18 19 20 23 24 24 24 24
15 15 15 22 35 26 5 12 8 16 13 6 7 5 7 5 12 24 26 26 24 25 27 28 26 22 17 18 16 13 11 8 6 5 5 6 9 11 14 16 19 23 24 26 26 27 28 29 29
15 15 15 25 27 11 12 11 12 13 8 5 7 7 7 8 19 25 27 25 25 22 24 27 22 19 18 18 16 12 8 8 6 5 5 7 11 15 18 20 22 23 24 26 27 27 27 28 28
18 13 21 18 14 10 13 5 15 14 11 11 2 8 8 16 24 28 28 28 24 26 23 23 25 20 18 14 12 9 6 4 4 5 8 11 13 16 18 21 22 23 24 25 25 24 25 26 26
9 9 10 12 13 11 5 5 4 9 6 2 2 1 8 23 28 30 28 28 24 23 24 23 24 21 19 16 12 8 6 5 6 9 11 13 14 15 17 18 22 22 23 23 24 24 24 25 25
3 9 13 9 10 6 4 6 2 3 6 6 3 2 8 26 29 31 29 29 31 29 27 27 24 22 19 16 14 10 7 7 8 11 13 15 17 17 17 17 19 22 22 24 24 24 24 25 25
13 12 6 10 9 6 5 8 5 7 14 13 8 4 13 22 27 31 32 31 31 33 32 29 26 24 20 16 13 10 8 8 9 11 13 15 17 18 19 19 20 21 23 24 25 26 28 28 29
8 9 6 5 7 6 6 8 4 10 13 12 8 17 19 22 27 29 28 27 30 32 35 32 30 26 22 17 13 10 9 9 11 13 15 17 19 19 20 21 23 25 26 27 28 28 30 31 32
10 1 5 3 5 6 6 10 10 15 9 5 2 6 19 24 28 30 29 28 29 34 36 36 31 27 21 16 14 11 10 12 14 16 17 18 20 21 23 25 26 29 30 31 33 34 34 36 37
10 4 3 1 3 7 12 15 17 19 13 12 9 7 14 19 23 26 27 27 30 35 38 37 32 28 22 19 14 12 11 14 15 16 17 19 21 23 25 27 29 31 33 35 35 36 37 38 39
4 5 3 2 3 5 11 12 6 4 2 5 13 16 14 17 21 25 30 33 34 35 40 38 34 30 24 20 16 14 13 13 15 18 20 21 24 24 25 28 31 33 34 35 36 37 38 39 41
10 8 6 5 7 3 12 13 13 9 5 9 5 5 11 14 19 27 28 32 33 35 39 41 36 33 27 23 18 15 15 17 20 24 25 25 24 25 26 30 33 35 35 34 35 37 39 42 43
7 5 7 8 12 2 9 3 10 5 2 3 2 1 3 10 16 21 26 28 32 33 38 41 39 34 28 24 21 18 18 20 23 28 30 28 25 26 30 33 36 36 34 34 36 39 42 45 48
3 4 8 8 8 8 4 10 11 4 11 23 20 18 18 19 17 17 22 26 30 33 35 40 40 35 30 26 24 23 22 24 27 30 28 27 26 28 32 35 37 35 35 36 39 42 47 50 53
7 7 5 4 11 10 16 22 18 22 23 24 20 14 15 16 17 18 18 25 31 33 35 37 38 36 31 28 27 26 26 27 30 30 28 28 30 32 35 37 36 34 36 39 43 46 48 51 53
5 2 4 6 8 11 7 22 23 18 12 14 14 14 18 19 18 15 18 27 28 32 34 36 38 36 31 30 29 29 27 31 31 31 31 32 35 37 39 36 34 35 38 42 46 49 51 51 52
4 2 1 2 4 10 13 26 10 16 16 17 16 20 24 24 23 21 14 10 25 27 34 36 37 35 31 31 30 29 27 30 31 35 36 38 39 38 36 33 32 36 40 43 46 48 50 49 48
7 4 5 5 17 1 22 6 12 20 27 25 25 21 24 28 28 26 24 8 9 20 28 32 34 33 30 31 32 30 31 34 34 38 38 40 39 37 34 32 34 39 42 44 45 46 47 49 46
4 7 5 7 9 4 14 2 15 15 20 27 27 29 27 28 28 26 24 16 10 10 22 28 31 30 29 31 31 30 30 29 30 40 44 43 38 36 33 33 37 41 43 45 46 46 48 47 45
6 3 5 4 0 3 5 5 14 14 10 17 27 28 28 28 28 28 26 23 11 4 14 21 26 27 29 29 27 27 28 35 41 43 46 40 39 35 34 36 39 42 43 45 46 47 48 47 44
8 2 3 2 2 4 4 5 9 1 10 10 22 28 30 29 29 28 26 22 18 10 4 11 17 22 24 23 23 24 32 37 44 44 42 38 36 36 36 38 41 43 46 47 48 50 51 49 49
3 2 2 5 5 2 1 7 4 9 14 19 20 24 27 28 29 29 28 24 18 11 6 7 11 17 22 24 23 29 38 44 46 44 42 39 37 37 39 42 43 45 47 49 50 52 52 52 50
1 2 6 7 4 4 2 10 4 20 18 19 20 21 23 26 26 26 25 23 19 15 12 13 17 21 25 30 34 41 46 46 45 43 43 43 41 41 43 45 46 48 49 50 52 54 55 54 52
5 3 4 6 2 5 5 6 12 18 9 13 16 20 23 23 24 24 23 23 21 20 19 18 19 22 29 39 49 53 52 50 48 45 44 45 44 44 46 48 50 51 51 52 53 55 55 53 49
2 4 3 4 6 9 7 8 11 22 19 4 10 16 21 22 23 22 23 24 25 25 26 26 26 29 30 34 42 49 54 57 57 54 53 54 52 52 52 52 53 53 54 53 54 54 53 50 46
6 5 4 4 5 7 7 7 7 26 25 17 8 10 20 22 21 21 21 24 25 27 32 35 36 37 38 38 38 40 46 54 61 68 65 63 62 61 59 58 57 57 56 55 53 52 52 49 46
4 4 10 8 7 4 6 12 12 25 30 22 11 10 13 15 16 16 20 25 29 34 43 49 51 51 51 52 51 47 44 45 48 58 66 76 73 71 69 63 62 62 59 56 53 51 49 47 45
Wind_Direction_500mb
250 242 239 270 247 227 257 215 270 218 227 60 339 306 12 30 2 24 148 171 161 161 157 165 165 167 172 185 194 175 174 169 166 156 152 156 156 162 173 199 245 270 286 301 308 317 324 318 311
235 208 190 258 253 242 239 221 224 257 79 119 130 284 276 70 52 119 135 157 162 159 167 159 171 178 174 190 197 186 167 169 170 164 167 173 185 196 227 255 275 289 293 294 299 304 310 306 305
203 173 223 222 243 249 260 138 254 85 150 217 158 35 31 69 82 132 182 166 169 168 176 173 176 179 189 216 223 219 191 168 171 177 185 215 236 261 274 284 288 291 297 301 304 303 305 305 301
143 181 240 244 240 243 284 108 10 157 198 213 245 161 90 125 143 152 155 168 182 188 184 192 192 192 208 221 223 211 214 188 181 185 191 235 258 278 287 294 296 295 295 294 297 300 302 301 300
165 214 227 234 248 248 260 305 270 267 277 218 204 167 97 162 149 145 146 151 176 183 195 195 199 206 211 211 212 191 179 166 174 191 226 263 289 295 299 296 297 299 299 298 297 297 296 294 294
203 242 233 235 238 236 242 230 238 244 230 182 226 203 120 176 150 150 148 148 148 158 183 192 194 204 192 184 176 165 167 175 189 227 261 284 294 301 304 305 303 304 304 304 305 303 301 298 295
255 222 247 275 287 258 233 217 234 250 215 205 312 230 132 162 161 155 153 154 152 153 159 175 179 175 175 181 181 179 189 227 264 292 302 302 302 302 306 311 311 311 311 310 311 310 310 308 305
258 270 253 242 248 249 86 213 341 254 193 90 229 306 129 180 171 162 161 158 156 162 171 177 177 186 188 188 191 195 203 248 288 301 307 309 312 316 316 315 315 314 315 315 316 316 315 313 312
285 247 245 243 241 61 78 234 119 292 256 194 156 49 147 178 174 171 169 171 180 177 182 185 183 185 185 189 196 205 226 260 288 304 312 320 320 320 319 317 316 317 318 318 319 318 317 315 313
226 250 262 32 14 14 3 306 348 273 207 218 198 214 150 171 179 179 182 184 191 192 195 193 190 192 195 198 203 219 244 270 295 304 313 315 317 318 319 321 322 320 320 318 317 317 317 317 318
184 270 46 68 25 351 311 267 259 275 252 245 255 189 177 185 187 192 194 199 197 201 201 198 200 200 200 204 214 232 258 277 294 306 315 315 316 317 320 322 324 322 320 318 317 316 315 314 315
219 271 358 33 358 323 282 305 261 247 289 47 90 161 188 197 200 201 203 201 198 205 210 206 208 209 210 213 223 243 268 288 300 306 311 313 315 320 323 325 326 326 324 323 321 320 321 320 320
245 148 90 68 341 309 301 267 278 268 255 246 243 228 206 210 210 213 211 207 203 212 214 212 214 217 221 226 235 252 272 287 299 306 313 316 315 319 320 321 323 323 324 323 322 322 323 321 320
103 168 147 33 343 310 307 278 304 129 130 234 239 245 236 230 223 216 214 210 213 217 217 217 217 221 225 234 240 253 275 292 303 307 309 308 306 310 313 318 321 321 322 322 322 322 323 322 322
152 175 178 47 338 328 327 249 238 270 296 278 294 251 233 238 228 226 226 222 219 220 220 220 221 225 227 233 243 261 283 295 303 308 310 307 306 310 314 318 319 319 319 320 320 322 323 323 323
215 233 219 87 3 119 316 73 97 94 42 37 344 287 248 260 253 237 228 228 218 218 221 225 224 226 230 237 247 261 278 291 301 308 308 304 304 308 313 317 318 318 319 321 323 325 325 324 323
184 254 228 142 40 322 276 321 107 150 300 302 292 273 280 287 273 261 245 231 220 215 217 224 226 227 232 241 252 262 275 288 299 304 304 302 302 306 312 316 317 319 321 324 326 327 327 326 324
188 209 200 296 27 329 277 276 314 317 309 305 306 316 315 309 295 271 258 242 229 220 217 220 223 227 234 243 252 261 274 286 295 298 299 298 301 307 311 314 315 318 322 324 325 326 328 327 325
343 340 313 83 27 320 314 304 324 354 43 46 39 41 22 10 352 327 273 240 229 219 211 216 222 229 238 246 252 260 273 284 292 295 299 300 303 306 309 312 313 318 321 323 324 326 327 327 326
38 50 335 130 30 323 328 309 52 33 38 44 39 34 26 20 17 9 348 246 219 219 215 214 224 230 240 245 250 254 268 282 293 298 299 300 303 305 307 310 312 316 318 321 322 323 324 326 327
44 10 29 336 323 192 315 178 115 88 73 60 50 38 33 27 22 22 21 50 199 206 210 216 224 231 242 244 250 258 271 282 291 296 299 301 303 304 304 306 310 314 316 319 320 322 323 323 326
214 24 21 5 349 321 359 206 142 127 89 63 43 32 30 28 31 34 38 58 94 156 199 211 219 228 238 242 248 258 272 283 291 292 295 300 297 296 299 304 309 312 314 316 319 321 320 319 317
59 33 47 56 87 298 12 240 129 179 99 38 34 37 38 35 36 37 40 48 56 141 191 204 216 225 232 238 249 270 284 293 296 295 298 296 295 294 296 301 305 309 311 314 316 316 317 313 310
113 340 48 172 153 223 101 336 149 89 346 54 61 57 46 45 45 45 45 48 49 62 141 205 219 225 235 249 262 278 292 299 299 298 295 293 291 292 297 301 305 310 312 313 314 315 312 308 303
18 290 236 209 217 304 188 260 22 79 87 95 77 54 49 46 43 42 44 43 39 27 358 291 270 267 266 259 265 290 301 306 303 298 291 287 286 291 297 302 305 307 308 309 309 309 307 305 303
306 326 305 280 247 51 236 232 160 126 113 106 76 59 49 42 38 34 36 38 29 16 348 311 292 283 276 268 277 289 299 305 307 304 294 286 284 287 291 296 299 301 303 303 305 306 307 308 307
111 270 39 94 119 260 186 239 177 160 124 115 68 45 29 28 30 31 31 32 29 19 4 344 319 298 282 275 278 284 289 293 299 299 290 282 280 282 286 289 293 296 298 299 302 303 305 305 305
250 55 176 194 258 251 191 259 231 173 171 144 61 28 23 30 38 34 28 27 25 17 8 359 353 343 326 307 297 291 286 283 284 288 286 282 279 278 280 284 288 291 294 296 298 301 304 305 305
144 191 219 309 257 267 277 233 325 179 156 140 99 38 27 25 32 27 18 12 6 355 347 343 338 334 329 325 320 314 305 294 287 282 280 280 276 275 277 282 284 288 290 292 295 300 303 305 306
258 249 215 236 178 245 314 272 7 116 122 126 109 46 26 16 15 4 349 344 341 335 329 326 322 319 317 315 313 313 317 314 308 294 287 280 279 276 274 277 280 283 285 287 291 295 297 297 297
Wind_Speed_850mb
19 14 6 7 11 10 19 9 11 9 5 4 4 8 15 20 14 4 16 32 41 44 31 32 28 23 17 11 12 16 17 16 14 10 11 10 8 7 5 4 5 7 9 12 15 17 14 13 14
17 11 8 12 14 20 17 19 14 12 8 6 2 3 4 9 14 15 15 47 43 36 29 30 26 20 14 12 15 18 18 18 15 14 10 8 6 5 5 6 9 12 15 16 18 21 19 18 18
13 19 13 9 19 26 18 8 16 10 7 5 4 2 7 8 8 18 16 47 45 36 29 25 24 19 15 13 16 19 17 17 14 11 7 6 5 5 7 10 12 15 18 20 21 21 21 21 22
9 10 11 17 26 22 22 7 4 5 6 5 4 8 10 8 13 8 26 39 43 39 30 30 27 21 18 17 20 18 13 10 9 7 5 6 6 8 11 14 16 18 19 20 23 24 24 24 24
15 15 15 22 35 26 5 12 8 16 13 6 7 5 7 5 12 24 26 26 24 25 27 28 26 22 17 18 16 13 11 8 6 5 5 6 9 11 14 16 19 23 24 26 26 27 28 29 29
15 15 15 25 27 11 12 11 12 13 8 5 7 7 7 8 19 25 27 25 25 22 24 27 22 19 18 18 16 12 8 8 6 5 5 7 11 15 18 20 22 23 24 26 27 27 27 28 28
18 13 21 18 14 10 13 5 15 14 11 11 2 8 8 16 24 28 28 28 24 26 23 23 25 20 18 14 12 9 6 4 4 5 8 11 13 16 18 21 22 23 24 25 25 24 25 26 26
9 9 10 12 13 11 5 5 4 9 6 2 2 1 8 23 28 30 28 28 24 23 24 23 24 21 19 16 12 8 6 5 6 9 11 13 14 15 17 18 22 22 23 23 24 24 24 25 25
3 9 13 9 10 6 4 6 2 3 6 6 3 2 8 26 29 31 29 29 31 29 27 27 24 22 19 16 14 10 7 7 8 11 13 15 17 17 17 17 19 22 22 24 24 24 24 25 25
13 12 6 10 9 6 5 8 5 7 14 13 8 4 13 22 27 31 32 31 31 33 32 29 26 24 20 16 13 10 8 8 9 11 13 15 17 18 19 19 20 21 23 24 25 26 28 28 29
8 9 6 5 7 6 6 8 4 10 13 12 8 17 19 22 27 29 28 27 30 32 35 32 30 26 22 17 13 10 9 9 11 13 15 17 19 19 20 21 23 25 26 27 28 28 30 31 32
10 1 5 3 5 6 6 10 10 15 9 5 2 6 19 24 28 30 29 28 29 34 36 36 31 27 21 16 14 11 10 12 14 16 17 18 20 21 23 25 26 29 30 31 33 34 34 36 37
10 4 3 1 3 7 12 15 17 19 13 12 9 7 14 19 23 26 27 27 30 35 38 37 32 28 22 19 14 12 11 14 15 16 17 19 21 23 25 27 29 31 33 35 35 36 37 38 39
4 5 3 2 3 5 11 12 6 4 2 5 13 16 14 17 21 25 30 33 34 35 40 38 34 30 24 20 16 14 13 13 15 18 20 21 24 24 25 28 31 33 34 35 36 37 38 39 41
10 8 6 5 7 3 12 13 13 9 5 9 5 5 11 14 19 27 28 32 33 35 39 41 36 33 27 23 18 15 15 17 20 24 25 25 24 25 26 30 33 35 35 34 35 37 39 42 43
7 5 7 8 12 2 9 3 10 5 2 3 2 1 3 10 16 21 26 28 32 33 38 41 39 34 28 24 21 18 18 20 23 28 30 28 25 26 30 33 36 36 34 34 36 39 42 45 48
3 4 8 8 8 8 4 10 11 4 11 23 20 18 18 19 17 17 22 26 30 33 35 40 40 35 30 26 24 23 22 24 27 30 28 27 26 28 32 35 37 35 35 36 39 42 47 50 53
7 7 5 4 11 10 16 22 18 22 23 24 20 14 15 16 17 18 18 25 31 33 35 37 38 36 31 28 27 26 26 27 30 30 28 28 30 32 35 37 36 34 36 39 43 46 48 51 53
5 2 4 6 8 11 7 22 23 18 12 14 14 14 18 19 18 15 18 27 28 32 34 36 38 36 31 30 29 29 27 31 31 31 31 32 35 37 39 36 34 35 38 42 46 49 51 51 52
4 2 1 2 4 10 13 26 10 16 16 17 16 20 24 24 23 21 14 10 25 27 34 36 37 35 31 31 30 29 27 30 31 35 36 38 39 38 36 33 32 36 40 43 46 48 50 49 48
7 4 5 5 17 1 22 6 12 20 27 25 25 21 24 28 28 26 24 8 9 20 28 32 34 33 30 31 32 30 31 34 34 38 38 40 39 37 34 32 34 39 42 44 45 46 47 49 46
4 7 5 7 9 4 14 2 15 15 20 27 27 29 27 28 28 26 24 16 10 10 22 28 31 30 29 31 31 30 30 29 30 40 44 43 38 36 33 33 37 41 43 45 46 46 48 47 45
6 3 5 4 0 3 5 5 14 14 10 17 27 28 28 28 28 28 26 23 11 4 14 21 26 27 29 29 27 27 28 35 41 43 46 40 39 35 34 36 39 42 43 45 46 47 48 47 44
8 2 3 2 2 4 4 5 9 1 10 10 22 28 30 29 29 28 26 22 18 10 4 11 17 22 24 23 23 24 32 37 44 44 42 38 36 36 36 38 41 43 46 47 48 50 51 49 49
3 2 2 5 5 2 1 7 4 9 14 19 20 24 27 28 29 29 28 24 18 11 6 7 11 17 22 24 23 29 38 44 46 44 42 39 37 37 39 42 43 45 47 49 50 52 52 52 50
1 2 6 7 4 4 2 10 4 20 18 19 20 21 23 26 26 26 25 23 19 15 12 13 17 21 25 30 34 41 46 46 45 43 43 43 41 41 43 45 46 48 49 50 52 54 55 54 52
5 3 4 6 2 5 5 6 12 18 9 13 16 20 23 23 24 24 23 23 21 20 19 18 19 22 29 39 49 53 52 50 48 45 44 45 44 44 46 48 50 51 51 52 53 55 55 53 49
2 4 3 4 6 9 7 8 11 22 19 4 10 16 21 22 23 22 23 24 25 25 26 26 26 29 30 34 42 49 54 57 57 54 53 54 52 52 52 52 53 53 54 53 54 54 53 50 46
6 5 4 4 5 7 7 7 7 26 25 17 8 10 20 22 21 21 21 24 25 27 32 35 36 37 38 38 38 40 46 54 61 68 65 63 62 61 59 58 57 57 56 55 53 52 52 49 46
4 4 10 8 7 4 6 12 12 25 30 22 11 10 13 15 16 16 20 25 29 34 43 49 51 51 51 52 51 47 44 45 48 58 66 76 73 71 69 63 62 62 59 56 53 51 49 47 45
Wind_Direction_850mb
250 242 239 270 247 227 257 215 270 218 227 60 339 306 12 30 2 24 148 171 161 161 157 165 165 167 172 185 194 175 174 169 166 156 152 156 156 162 173 199 245 270 286 301 308 317 324 318 311
235 208 190 258 253 242 239 221 224 257 79 119 130 284 276 70 52 119 135 157 162 159 167 159 171 178 174 190 197 186 167 169 170 164 167 173 185 196 227 255 275 289 293 294 299 304 310 306 305
203 173 223 222 243 249 260 138 254 85 150 217 158 35 31 69 82 132 182 166 169 168 176 173 176 179 189 216 223 219 191 168 171 177 185 215 236 261 274 284 288 291 297 301 304 303 305 305 301
143 181 240 244 240 243 284 108 10 157 198 213 245 161 90 125 143 152 155 168 182 188 184 192 192 192 208 221 223 211 214 188 181 185 191 235 258 278 287 294 296 295 295 294 297 300 302 301 300
165 214 227 234 248 248 260 305 270 267 277 218 204 167 97 162 149 145 146 151 176 183 195 195 199 206 211 211 212 191 179 166 174 191 226 263 289 295 299 296 297 299 299 298 297 297 296 294 294
203 242 233 235 238 236 242 230 238 244 230 182 226 203 120 176 150 150 148 148 148 158 183 192 194 204 192 184 176 165 167 175 189 227 261 284 294 301 304 305 303 304 304 304 305 303 301 298 295
255 222 247 275 287 258 233 217 234 250 215 205 312 230 132 162 161 155 153 154 152 153 159 175 179 175 175 181 181 179 189 227 264 292 302 302 302 302 306 311 311 311 311 310 311 310 310 308 305
258 270 253 242 248 249 86 213 341 254 193 90 229 306 129 180 171 162 161 158 156 162 171 177 177 186 188 188 191 195 203 248 288 301 307 309 312 316 316 315 315 314 315 315 316 316 315 313 312
285 247 245 243 241 61 78 234 119 292 256 194 156 49 147 178 174 171 169 171 180 177 182 185 183 185 185 189 196 205 226 260 288 304 312 320 320 320 319 317 316 317 318 318 319 318 317 315 313
226 250 262 32 14 14 3 306 348 273 207 218 198 214 150 171 179 179 182 184 191 192 195 193 190 192 195 198 203 219 244 270 295 304 313 315 317 318 319 321 322 320 320 318 317 317 317 317 318
184 270 46 68 25 351 311 267 259 275 252 245 255 189 177 185 187 192 194 199 197 201 201 198 200 200 200 204 214 232 258 277 294 306 315 315 316 317 320 322 324 322 320 318 317 316 315 314 315
219 271 358 33 358 323 282 305 261 247 289 47 90 161 188 197 200 201 203 201 198 205 210 206 208 209 210 213 223 243 268 288 300 306 311 313 315 320 323 325 326 326 324 323 321 320 321 320 320
245 148 90 68 341 309 301 267 278 268 255 246 243 228 206 210 210 213 211 207 203 212 214 212 214 217 221 226 235 252 272 287 299 306 313 316 315 319 320 321 323 323 324 323 322 322 323 321 320
103 168 147 33 343 310 307 278 304 129 130 234 239 245 236 230 223 216 214 210 213 217 217 217 217 221 225 234 240 253 275 292 303 307 309 308 306 310 313 318 321 321 322 322 322 322 323 322 322
152 175 178 47 338 328 327 249 238 270 296 278 294 251 233 238 228 226 226 222 219 220 220 220 221 225 227 233 243 261 283 295 303 308 310 307 306 310 314 318 319 319 319 320 320 322 323 323 323
215 233 219 87 3 119 316 73 97 94 42 37 344 287 248 260 253 237 228 228 218 218 221 225 224 226 230 237 247 261 278 291 301 308 308 304 304 308 313 317 318 318 319 321 323 325 325 324 323
184 254 228 142 40 322 276 321 107 150 300 302 292 273 280 287 273 261 245 231 220 215 217 224 226 227 232 241 252 262 275 288 299 304 304 302 302 306 312 316 317 319 321 324 326 327 327 326 324
188 209 200 296 27 329 277 276 314 317 309 305 306 316 315 309 295 271 258 242 229 220 217 220 223 227 234 243 252 261 274 286 295 298 299 298 301 307 311 314 315 318 322 324 325 326 328 327 325
343 340 313 83 27 320 314 304 324 354 43 46 39 41 22 10 352 327 273 240 229 219 211 216 222 229 238 246 252 260 273 284 292 295 299 300 303 306 309 312 313 318 321 323 324 326 327 327 326
38 50 335 130 30 323 328 309 52 33 38 44 39 34 26 20 17 9 348 246 219 219 215 214 224 230 240 245 250 254 268 282 293 298 299 300 303 305 307 310 312 316 318 321 322 323 324 326 327
44 10 29 336 323 192 315 178 115 88 73 60 50 38 33 27 22 22 21 50 199 206 210 216 224 231 242 244 250 258 271 282 291 296 299 301 303 304 304 306 310 314 316 319 320 322 323 323 326
214 24 21 5 349 321 359 206 142 127 89 63 43 32 30 28 31 34 38 58 94 156 199 211 219 228 238 242 248 258 272 283 291 292 295 300 297 296 299 304 309 312 314 316 319 321 320 319 317
59 33 47 56 87 298 12 240 129 179 99 38 34 37 38 35 36 37 40 48 56 141 191 204 216 225 232 238 249 270 284 293 296 295 298 296 295 294 296 301 305 309 311 314 316 316 317 313 310
113 340 48 172 153 223 101 336 149 89 346 54 61 57 46 45 45 45 45 48 49 62 141 205 219 225 235 249 262 278 292 299 299 298 295 293 291 292 297 301 305 310 312 313 314 315 312 308 303
18 290 236 209 217 304 188 260 22 79 87 95 77 54 49 46 43 42 44 43 39 27 358 291 270 267 266 259 265 290 301 306 303 298 291 287 286 291 297 302 305 307 308 309 309 309 307 305 303
306 326 305 280 247 51 236 232 160 126 113 106 76 59 49 42 38 34 36 38 29 16 348 311 292 283 276 268 277 289 299 305 307 304 294 286 284 287 291 296 299 301 303 303 305 306 307 308 307
111 270 39 94 119 260 186 239 177 160 124 115 68 45 29 28 30 31 31 32 29 19 4 344 319 298 282 275 278 284 289 293 299 299 290 282 280 282 286 289 293 296 298 299 302 303 305 305 305
250 55 176 194 258 251 191 259 231 173 171 144 61 28 23 30 38 34 28 27 25 17 8 359 353 343 326 307 297 291 286 283 284 288 286 282 279 278 280 284 288 291 294 296 298 301 304 305 305
144 191 219 309 257 267 277 233 325 179 156 140 99 38 27 25 32 27 18 12 6 355 347 343 338 334 329 325 320 314 305 294 287 282 280 280 276 275 277 282 284 288 290 292 295 300 303 305 306
258 249 215 236 178 245 314 272 7 116 122 126 109 46 26 16 15 4 349 344 341 335 329 326 322 319 317 315 313 313 317 314 308 294 287 280 279 276 274 277 280 283 285 287 291 295 297 297 297